• In Lithuania
  • List of Countries
  • For 7 days
  • Water Temperature
  • Satellite Maps
  • Weather Map
  • Weather Widgets
  • user-avatar
    Login

    Hourly Weather Nuernberg

    Today, 20 September, Thursday

    Time Temperature Precipitation Wind Pressure Humidity
    00:00 +19°C° 0 mm 1 mps 738 mmHg 81%
    01:00 +19°C° 0 mm 1 mps 738 mmHg 78%
    02:00 +19°C° 0 mm 1 mps 738 mmHg 79%
    03:00 +18°C° 0 mm 1 mps 738 mmHg 80%
    04:00 +18°C° 0 mm 1 mps 737 mmHg 81%
    05:00 +18°C° 0 mm 1 mps 738 mmHg 81%
    06:00 +18°C° 0 mm 1 mps 738 mmHg 81%
    07:00 +18°C° 0 mm 2 mps 737 mmHg 78%
    08:00 +20°C° 0 mm 2 mps 738 mmHg 72%
    09:00 +23°C° 0 mm 2 mps 738 mmHg 65%
    10:00 +25°C° 0 mm 2 mps 738 mmHg 58%
    11:00 +26°C° 0 mm 2 mps 738 mmHg 54%
    12:00 +28°C° 0 mm 2 mps 737 mmHg 50%
    13:00 +29°C° 0 mm 3 mps 737 mmHg 44%
    14:00 +29°C° 0 mm 2 mps 737 mmHg 44%
    15:00 +29°C° 0 mm 2 mps 736 mmHg 45%
    16:00 +29°C° 0 mm 2 mps 736 mmHg 46%
    17:00 +27°C° 0 mm 2 mps 736 mmHg 54%
    18:00 +25°C° 0 mm 1 mps 735 mmHg 62%
    19:00 +22°C° 0 mm 1 mps 735 mmHg 70%
    20:00 +22°C° 0 mm 1 mps 735 mmHg 73%
    21:00 +20°C° 0 mm 2 mps 735 mmHg 76%
    22:00 +19°C° 0 mm 2 mps 734 mmHg 79%
    23:00 +19°C° 0 mm 2 mps 734 mmHg 81%

    Tomorrow, 21 September, Friday

    Time Temperature Precipitation Wind Pressure Humidity
    00:00 +18°C° 0 mm 2 mps 734 mmHg 82%
    01:00 +18°C° 0 mm 2 mps 734 mmHg 84%
    02:00 +17°C° 0 mm 2 mps 733 mmHg 85%
    03:00 +17°C° 0 mm 2 mps 733 mmHg 86%
    04:00 +17°C° 0 mm 2 mps 733 mmHg 87%
    05:00 +17°C° 0 mm 2 mps 732 mmHg 86%
    06:00 +17°C° 0 mm 2 mps 732 mmHg 85%
    07:00 +17°C° 0 mm 2 mps 732 mmHg 84%
    08:00 +19°C° 0 mm 3 mps 732 mmHg 75%
    09:00 +22°C° 0 mm 4 mps 732 mmHg 66%
    10:00 +25°C° 0 mm 4 mps 731 mmHg 57%
    11:00 +26°C° 0 mm 5 mps 731 mmHg 53%
    12:00 +27°C° 0 mm 6 mps 731 mmHg 48%
    13:00 +29°C° 0 mm 7 mps 731 mmHg 44%
    14:00 +27°C° 0.1 mm 6 mps 731 mmHg 48%
    15:00 +24°C° 0.1 mm 6 mps 731 mmHg 53%
    16:00 +23°C° 0.1 mm 5 mps 731 mmHg 58%
    17:00 +21°C° 0.5 mm 5 mps 732 mmHg 66%
    18:00 +17°C° 0.5 mm 5 mps 733 mmHg 75%
    19:00 +15°C° 0.5 mm 5 mps 733 mmHg 84%
    20:00 +14°C° 0 mm 4 mps 734 mmHg 82%
    21:00 +13°C° 0 mm 4 mps 735 mmHg 81%
    22:00 +12°C° 0 mm 3 mps 736 mmHg 80%
    23:00 +12°C° 0 mm 3 mps 737 mmHg 79%

    Day after tomorrow, 22 September, Saturday

    Time Temperature Precipitation Wind Pressure Humidity
    00:00 +12°C° 0 mm 3 mps 737 mmHg 78%
    01:00 +11°C° 0 mm 3 mps 738 mmHg 76%
    02:00 +11°C° 0 mm 3 mps 738 mmHg 75%
    03:00 +11°C° 0 mm 3 mps 738 mmHg 74%
    04:00 +10°C° 0 mm 3 mps 738 mmHg 73%
    05:00 +10°C° 0 mm 3 mps 739 mmHg 73%
    06:00 +10°C° 0 mm 3 mps 739 mmHg 73%
    07:00 +10°C° 0 mm 3 mps 739 mmHg 73%
    08:00 +11°C° 0 mm 4 mps 739 mmHg 67%
    09:00 +12°C° 0 mm 4 mps 739 mmHg 61%
    10:00 +14°C° 0 mm 5 mps 740 mmHg 56%
    11:00 +14°C° 0 mm 5 mps 739 mmHg 53%
    12:00 +15°C° 0 mm 5 mps 739 mmHg 50%
    13:00 +16°C° 0 mm 5 mps 739 mmHg 47%
    14:00 +17°C° 0 mm 4 mps 739 mmHg 47%
    15:00 +17°C° 0 mm 4 mps 739 mmHg 46%
    16:00 +17°C° 0 mm 4 mps 739 mmHg 46%
    17:00 +16°C° 0 mm 3 mps 739 mmHg 49%
    18:00 +14°C° 0 mm 3 mps 739 mmHg 53%
    19:00 +14°C° 0 mm 2 mps 739 mmHg 56%
    20:00 +14°C° 0 mm 2 mps 739 mmHg 58%
    21:00 +13°C° 0 mm 2 mps 739 mmHg 59%
    22:00 +13°C° 0 mm 2 mps 740 mmHg 61%
    23:00 +12°C° 0 mm 2 mps 739 mmHg 62%

    23 September, Sunday

    Time Temperature Precipitation Wind Pressure Humidity
    00:00 +12°C° 0 mm 1 mps 739 mmHg 64%
    01:00 +12°C° 0 mm 1 mps 739 mmHg 65%
    02:00 +12°C° 0.2 mm 1 mps 739 mmHg 69%
    03:00 +12°C° 0.2 mm 1 mps 738 mmHg 72%
    04:00 +12°C° 0.2 mm 1 mps 738 mmHg 76%
    05:00 +11°C° 0.3 mm 1 mps 738 mmHg 80%
    06:00 +10°C° 0.3 mm 2 mps 738 mmHg 84%
    07:00 +10°C° 0.3 mm 2 mps 737 mmHg 87%
    08:00 +12°C° 0.3 mm 2 mps 737 mmHg 88%
    09:00 +11°C° 0.3 mm 3 mps 737 mmHg 88%
    10:00 +11°C° 0.3 mm 3 mps 736 mmHg 89%
    11:00 +13°C° 0.2 mm 3 mps 736 mmHg 87%
    12:00 +14°C° 0.2 mm 4 mps 735 mmHg 85%
    13:00 +17°C° 0.2 mm 4 mps 734 mmHg 83%
    14:00 +18°C° 0.1 mm 4 mps 734 mmHg 82%
    15:00 +20°C° 0.1 mm 4 mps 733 mmHg 80%
    16:00 +21°C° 0.1 mm 5 mps 732 mmHg 79%
    17:00 +20°C° 0.3 mm 4 mps 732 mmHg 82%
    18:00 +20°C° 0.3 mm 4 mps 731 mmHg 84%
    19:00 +19°C° 0.3 mm 4 mps 731 mmHg 87%
    20:00 +19°C° 1.4 mm 5 mps 730 mmHg 87%
    21:00 +19°C° 1.4 mm 5 mps 729 mmHg 88%
    22:00 +19°C° 1.4 mm 6 mps 728 mmHg 88%
    23:00 +18°C° 2.3 mm 8 mps 728 mmHg 87%

    24 September, Monday

    Time Temperature Precipitation Wind Pressure Humidity
    00:00 +18°C° 2.3 mm 9 mps 727 mmHg 86%
    01:00 +18°C° 2.3 mm 11 mps 727 mmHg 85%
    02:00 +16°C° 0.3 mm 10 mps 729 mmHg 84%
    03:00 +12°C° 0.3 mm 10 mps 731 mmHg 83%
    04:00 +9°C° 0.3 mm 10 mps 733 mmHg 82%
    05:00 +9°C° 0 mm 8 mps 735 mmHg 81%
    06:00 +8°C° 0 mm 6 mps 737 mmHg 81%
    07:00 +7°C° 0 mm 5 mps 740 mmHg 80%
    08:00 +8°C° 0 mm 5 mps 741 mmHg 74%
    09:00 +9°C° 0 mm 5 mps 742 mmHg 67%
    10:00 +10°C° 0 mm 5 mps 743 mmHg 61%
    11:00 +12°C° 0 mm 5 mps 743 mmHg 58%
    12:00 +13°C° 0 mm 5 mps 743 mmHg 55%
    13:00 +13°C° 0 mm 5 mps 744 mmHg 52%
    14:00 +13°C° 0 mm 5 mps 744 mmHg 52%
    15:00 +13°C° 0 mm 5 mps 744 mmHg 51%
    16:00 +13°C° 0 mm 4 mps 745 mmHg 51%
    17:00 +12°C° 0 mm 4 mps 745 mmHg 56%
    18:00 +10°C° 0 mm 3 mps 745 mmHg 61%
    19:00 +9°C° 0 mm 2 mps 746 mmHg 67%
    20:00 +8°C° 0 mm 2 mps 746 mmHg 70%
    21:00 +8°C° 0 mm 2 mps 747 mmHg 73%
    22:00 +7°C° 0 mm 2 mps 747 mmHg 76%
    23:00 +6°C° 0 mm 2 mps 748 mmHg 78%

    25 September, Tuesday

    Time Temperature Precipitation Wind Pressure Humidity
    00:00 +6°C° 0 mm 2 mps 748 mmHg 80%
    01:00 +5°C° 0 mm 2 mps 748 mmHg 83%
    02:00 +6°C° 0 mm 1 mps 748 mmHg 85%
    03:00 +5°C° 0 mm 1 mps 749 mmHg 86%
    04:00 +5°C° 0 mm 1 mps 749 mmHg 88%
    05:00 +5°C° 0 mm 1 mps 749 mmHg 88%
    06:00 +5°C° 0 mm 1 mps 750 mmHg 87%
    07:00 +5°C° 0 mm 1 mps 750 mmHg 87%
    08:00 +7°C° 0 mm 1 mps 750 mmHg 77%
    09:00 +8°C° 0 mm 2 mps 751 mmHg 66%
    10:00 +10°C° 0 mm 2 mps 751 mmHg 56%
    11:00 +12°C° 0 mm 2 mps 751 mmHg 50%
    12:00 +13°C° 0 mm 2 mps 751 mmHg 44%
    13:00 +14°C° 0 mm 2 mps 751 mmHg 38%
    14:00 +14°C° 0 mm 2 mps 750 mmHg 39%
    15:00 +14°C° 0 mm 2 mps 750 mmHg 39%
    16:00 +14°C° 0 mm 2 mps 750 mmHg 39%
    17:00 +12°C° 0 mm 2 mps 750 mmHg 46%
    18:00 +10°C° 0 mm 1 mps 750 mmHg 53%
    19:00 +9°C° 0 mm 1 mps 750 mmHg 60%
    20:00 +8°C° 0 mm 1 mps 750 mmHg 63%
    21:00 +7°C° 0 mm 1 mps 751 mmHg 66%
    22:00 +7°C° 0 mm 1 mps 751 mmHg 69%
    23:00 +6°C° 0 mm 1 mps 751 mmHg 70%
    Show more